Tracking 29747 objects as of 9-Oct-2024
HD Live streaming from Space Station
objects crossing your sky now

STARLINK-2450

Track STARLINK-2450 now!
10-day predictions
STARLINK-2450 is classified as:


NORAD ID: 48113
Int'l Code: 2021-027X
Perigee: 551.7 km
Apogee: 557.0 km
Inclination: 53.1 °
Period: 95.6 minutes
Semi major axis: 6925 km
RCS: Unknown
Launch date: April 7, 2021
Source: United States (US)
Launch site: AIR FORCE EASTERN TEST RANGE (AFETR)
Your satellite tracking list
Your tracking list is empty




NASA's NSSDC Master Catalog

Two Line Element Set (TLE):
1 48113U 21027X   24283.11273235  .00003370  00000-0  24508-3 0  9997
2 48113  53.0555 330.6220 0003795  90.2071 269.9353 15.06398082194150
Source of the keplerian elements: AFSPC